| time (UTC) | temp C | wind direction | speed KPH | gust KPH | rain 1hr cm | rain 24hr cm | rain mn cm | humidity % | barometer mb |
| 20260902123112 | 10 | 88 | 0.0 | 0.0 | 0.00 | 0.00 | 0.00 | 60 | 1006.4 |
| 20260902121511 | 10 | 88 | 0.0 | 0.0 | 0.00 | 0.00 | 0.00 | 58 | 1006.2 |
| 20260902120012 | 11 | 88 | 0.0 | 0.0 | 0.00 | 0.00 | 0.00 | 57 | 1006.2 |
| 20260902114538 | 11 | 90 | 0.0 | 0.0 | 0.00 | 0.00 | 0.00 | 57 | 1006.0 |
| 20260902113035 | 11 | 89 | 0.0 | 0.0 | 0.00 | 0.00 | 0.00 | 58 | 1006.0 |
| 20260902111551 | 11 | 90 | 0.0 | 0.0 | 0.00 | 0.00 | 0.00 | 58 | 1006.0 |
| 20260902110057 | 11 | 87 | 0.0 | 0.0 | 0.00 | 0.00 | 0.00 | 60 | 1005.9 |
| 20260902104559 | 11 | 57 | 0.0 | 0.0 | 0.00 | 0.00 | 0.00 | 61 | 1006.0 |
| 20260902103030 | 11 | 138 | 0.0 | 0.0 | 0.00 | 0.00 | 0.00 | 61 | 1006.0 |
| 20260902101542 | 10 | 138 | 0.0 | 0.0 | 0.00 | 0.00 | 0.00 | 62 | 1005.9 |
| 20260902094543 | 10 | 138 | 0.0 | 0.0 | 0.00 | 0.00 | 0.00 | 66 | 1006.1 |
| 20260902093046 | 10 | 143 | 0.0 | 0.0 | 0.00 | 0.00 | 0.00 | 66 | 1006.0 |
| 20260902091534 | 10 | 143 | 0.0 | 0.0 | 0.00 | 0.00 | 0.00 | 69 | 1006.0 |
| 20260902090043 | 10 | 143 | 0.0 | 0.0 | 0.00 | 0.00 | 0.00 | 70 | 1006.0 |
| 20260902084557 | 10 | 143 | 0.0 | 0.0 | 0.00 | 0.00 | 0.00 | 71 | 1006.0 |
| 20260902083035 | 10 | 144 | 0.0 | 0.0 | 0.00 | 0.00 | 0.00 | 71 | 1005.9 |
| 20260902081559 | 10 | 144 | 0.0 | 0.0 | 0.00 | 0.00 | 0.00 | 71 | 1005.9 |
| 20260902080046 | 10 | 143 | 0.0 | 0.0 | 0.00 | 0.00 | 0.00 | 71 | 1005.8 |
| 20260902074544 | 10 | 143 | 0.0 | 0.0 | 0.00 | 0.00 | 0.00 | 70 | 1005.9 |
| 20260902073028 | 11 | 144 | 0.0 | 0.0 | 0.00 | 0.00 | 0.00 | 69 | 1005.9 |
| 20260902071508 | 11 | 143 | 0.0 | 0.0 | 0.00 | 0.00 | 0.00 | 67 | 1005.6 |
| 20260902070126 | 11 | 144 | 0.0 | 0.0 | 0.00 | 0.00 | 0.00 | 68 | 1005.3 |
| 20260902064504 | 11 | 143 | 0.0 | 0.0 | 0.00 | 0.00 | 0.00 | 68 | 1005.2 |
| 20260902063026 | 12 | 143 | 0.0 | 0.0 | 0.00 | 0.00 | 0.00 | 66 | 1005.0 |
| 20260902061611 | 12 | 143 | 0.0 | 0.0 | 0.00 | 0.00 | 0.00 | 64 | 1005.0 |
| 20260902060058 | 12 | 145 | 0.0 | 0.0 | 0.00 | 0.00 | 0.00 | 64 | 1005.1 |
| 20260902054540 | 13 | 145 | 0.0 | 0.0 | 0.00 | 0.00 | 0.00 | 62 | 1005.1 |
| 20260902053049 | 13 | 145 | 0.0 | 0.0 | 0.00 | 0.00 | 0.00 | 63 | 1005.1 |
| 20260902051600 | 13 | 145 | 0.0 | 0.0 | 0.00 | 0.00 | 0.00 | 65 | 1005.2 |
| 20260902050122 | 13 | 161 | 0.0 | 0.0 | 0.00 | 0.00 | 0.00 | 66 | 1005.4 |
| 20260902044552 | 13 | 161 | 0.0 | 0.0 | 0.00 | 0.00 | 0.00 | 65 | 1005.5 |
| 20260902043055 | 13 | 173 | 0.0 | 0.0 | 0.00 | 0.00 | 0.00 | 65 | 1005.6 |
| 20260902041555 | 14 | 182 | 0.0 | 0.0 | 0.00 | 0.00 | 0.00 | 63 | 1005.7 |
| 20260902040057 | 15 | 186 | 0.0 | 0.0 | 0.00 | 0.00 | 0.00 | 61 | 1005.7 |
| 20260902034558 | 15 | 141 | 0.0 | 0.0 | 0.00 | 0.00 | 0.00 | 60 | 1005.7 |
| 20260902033056 | 15 | 151 | 0.0 | 12.9 | 0.00 | 0.00 | 0.00 | 59 | 1005.5 |
| 20260902031542 | 15 | 148 | 1.6 | 17.7 | 0.00 | 0.00 | 0.00 | 58 | 1005.4 |
| 20260902030153 | 15 | 110 | 0.0 | 4.8 | 0.00 | 0.00 | 0.00 | 58 | 1005.3 |
| 20260902024610 | 15 | 161 | 4.8 | 16.1 | 0.00 | 0.00 | 0.00 | 58 | 1005.1 |
| 20260902023109 | 15 | 115 | 4.8 | 20.9 | 0.00 | 0.00 | 0.00 | 59 | 1004.9 |
| 20260902021604 | 15 | 92 | 6.4 | 16.1 | 0.00 | 0.00 | 0.00 | 60 | 1004.9 |
| 20260902020107 | 15 | 134 | 0.0 | 14.5 | 0.00 | 0.00 | 0.00 | 58 | 1004.6 |
| 20260902014552 | 16 | 161 | 0.0 | 0.0 | 0.00 | 0.03 | 0.00 | 54 | 1004.6 |
| 20260902013037 | 16 | 161 | 0.0 | 8.0 | 0.00 | 0.03 | 0.00 | 48 | 1004.6 |
| 20260902011532 | 17 | 158 | 0.0 | 0.0 | 0.00 | 0.03 | 0.00 | 43 | 1004.8 |
| 20260902010127 | 18 | 184 | 0.0 | 0.0 | 0.00 | 0.03 | 0.00 | 37 | 1005.0 |
| 20260902004601 | 18 | 184 | 0.0 | 0.0 | 0.00 | 0.03 | 0.00 | 36 | 1005.0 |
| 20260902003127 | 19 | 184 | 0.0 | 0.0 | 0.00 | 0.03 | 0.00 | 35 | 1005.1 |
| 20260902001655 | 20 | 198 | 0.0 | 0.0 | 0.00 | 0.03 | 0.00 | 34 | 1005.1 |
| 20260902000040 | 21 | 158 | 0.0 | 0.0 | 0.00 | 0.03 | 0.00 | 31 | 1005.0 |
| 20260901234541 | 21 | 167 | 0.0 | 3.2 | 0.00 | 0.03 | 0.00 | 30 | 1005.2 |
| 20260901233048 | 21 | 277 | 0.0 | 9.7 | 0.00 | 0.03 | 0.00 | 30 | 1005.2 |
| 20260901231521 | 20 | 269 | 0.0 | 0.0 | 0.00 | 0.03 | 0.00 | 30 | 1005.4 |
| 20260901230047 | 21 | 273 | 0.0 | 14.5 | 0.00 | 0.03 | 0.00 | 30 | 1005.7 |
| 20260901224553 | 21 | 117 | 0.0 | 0.0 | 0.00 | 0.03 | 0.00 | 29 | 1005.7 |
| 20260901223057 | 21 | 192 | 0.0 | 0.0 | 0.00 | 0.03 | 0.00 | 28 | 1005.9 |
| 20260901221600 | 21 | 117 | 0.0 | 0.0 | 0.00 | 0.03 | 0.00 | 30 | 1005.7 |
| 20260901220127 | 20 | 254 | 0.0 | 0.0 | 0.00 | 0.03 | 0.00 | 32 | 1005.9 |
| 20260901214522 | 20 | 244 | 0.0 | 0.0 | 0.00 | 0.03 | 0.00 | 28 | 1006.1 |
| 20260901213127 | 20 | 185 | 0.0 | 1.6 | 0.00 | 0.03 | 0.00 | 30 | 1006.2 |
| 20260901211508 | 21 | 196 | 0.0 | 6.4 | 0.00 | 0.03 | 0.00 | 27 | 1006.4 |
| 20260901210029 | 21 | 151 | 6.4 | 25.7 | 0.00 | 0.03 | 0.00 | 29 | 1006.6 |
| 20260901204506 | 20 | 175 | 0.0 | 3.2 | 0.00 | 0.03 | 0.00 | 35 | 1006.6 |
| 20260901203126 | 19 | 263 | 0.0 | 0.0 | 0.00 | 0.03 | 0.00 | 36 | 1006.7 |
| 20260901201629 | 19 | 273 | 0.0 | 0.0 | 0.00 | 0.03 | 0.00 | 37 | 1006.7 |
| 20260901200121 | 20 | 190 | 0.0 | 17.7 | 0.00 | 0.03 | 0.00 | 40 | 1006.8 |
| 20260901194532 | 20 | 217 | 0.0 | 11.3 | 0.00 | 0.03 | 0.00 | 37 | 1006.7 |
| 20260901193019 | 19 | 232 | 1.6 | 19.3 | 0.00 | 0.03 | 0.00 | 37 | 1006.8 |
| 20260901191532 | 17 | 346 | 0.0 | 17.7 | 0.00 | 0.03 | 0.00 | 44 | 1006.7 |
| 20260901190043 | 17 | 155 | 0.0 | 0.0 | 0.00 | 0.03 | 0.00 | 49 | 1007.1 |
| 20260901184524 | 17 | 120 | 0.0 | 0.0 | 0.00 | 0.03 | 0.00 | 49 | 1007.3 |
| 20260901183101 | 17 | 271 | 0.0 | 0.0 | 0.00 | 0.03 | 0.00 | 49 | 1007.3 |
| 20260901181552 | 18 | 258 | 0.0 | 0.0 | 0.00 | 0.03 | 0.00 | 47 | 1007.5 |
| 20260901180100 | 17 | 188 | 0.0 | 0.0 | 0.00 | 0.03 | 0.00 | 51 | 1007.6 |
| 20260901174510 | 17 | 355 | 0.0 | 0.0 | 0.00 | 0.03 | 0.00 | 47 | 1007.7 |
| 20260901173038 | 17 | 345 | 0.0 | 0.0 | 0.00 | 0.03 | 0.00 | 50 | 1007.9 |
| 20260901171542 | 17 | 175 | 0.0 | 14.5 | 0.00 | 0.03 | 0.00 | 52 | 1008.1 |
| 20260901170051 | 16 | 263 | 0.0 | 12.9 | 0.00 | 0.03 | 0.00 | 55 | 1008.1 |
| 20260901164600 | 16 | 173 | 0.0 | 1.6 | 0.00 | 0.03 | 0.00 | 59 | 1008.0 |
| 20260901163018 | 15 | 238 | 0.0 | 6.4 | 0.00 | 0.03 | 0.00 | 61 | 1008.0 |
| 20260901161543 | 14 | 136 | 0.0 | 0.0 | 0.00 | 0.03 | 0.00 | 69 | 1008.0 |
| 20260901154618 | 12 | 161 | 0.0 | 0.0 | 0.00 | 0.03 | 0.00 | 71 | 1007.9 |
| 20260901153129 | 12 | 161 | 0.0 | 0.0 | 0.00 | 0.03 | 0.00 | 73 | 1008.1 |
| 20260901151510 | 12 | 161 | 0.0 | 0.0 | 0.00 | 0.03 | 0.00 | 75 | 1008.1 |
| 20260901150030 | 12 | 176 | 0.0 | 0.0 | 0.00 | 0.03 | 0.00 | 74 | 1008.2 |
| 20260901144538 | 12 | 135 | 0.0 | 0.0 | 0.00 | 0.03 | 0.00 | 73 | 1008.2 |
| 20260901143044 | 11 | 251 | 0.0 | 0.0 | 0.00 | 0.03 | 0.00 | 74 | 1008.3 |
| 20260901141601 | 11 | 192 | 0.0 | 0.0 | 0.00 | 0.03 | 0.00 | 74 | 1008.1 |
| 20260901134606 | 11 | 195 | 0.0 | 0.0 | 0.00 | 0.03 | 0.00 | 75 | 1008.0 |
| 20260901133002 | 11 | 149 | 0.0 | 0.0 | 0.00 | 0.03 | 0.00 | 77 | 1007.9 |
| 20260901131518 | 11 | 149 | 0.0 | 0.0 | 0.00 | 0.03 | 0.00 | 78 | 1007.7 |
| 20260901130041 | 11 | 138 | 0.0 | 0.0 | 0.00 | 0.03 | 0.00 | 79 | 1007.5 |
| 20260901124548 | 11 | 175 | 0.0 | 0.0 | 0.00 | 0.03 | 0.00 | 79 | 1007.3 |